Flag for Canada Weather past 2 weeks in Chatham-Kent, Ontario, Canada

Now
55 °F

Cool.


Feels Like: 52 °F
Forecast: 52 / 61 °F
Wind: 12 mph from Southwest

Location: Erieau

Current Time: Oct 25, 2014 at 8:20:12 AM

Latest Report: Oct 25, 2014 at 7:00 AM


Visibility: N/A

Pressure: 29.87 "Hg

Humidity: 89%

Dew point: 52 °F

Location of Chatham-KentLocation

Historic Weather in Chatham-Kent — Graph

°F

Chatham-Kent temperature yesterday

Maximum temperature yesterday: 57 °F (at 1:00 PM)
Minimum temperature yesterday: 44 °F (at 5:00 AM)
Average temperature yesterday: 51 °F

Past Weeks' High & Low Weather Summary

 TemperatureHumidityPressure
High66 °F (Oct 14, 11:00 AM)100% (Oct 16, 5:00 AM)30.29 "Hg (Oct 16, 5:00 AM)
Low38 °F (Oct 19, 8:00 AM)40% (Oct 11, 5:00 PM)29.51 "Hg (Oct 17, 3:00 PM)
Average53 °F78%29.96 "Hg
* Reported Oct 10 7:00 AM — Oct 25 7:00 AM, Chatham-Kent, Weather by CustomWeather, © 2014

Note: Actual official high and low records may vary slightly from our data, if they occured in-between our weather recording intervals... More about our weather records

Advertising

Chatham-Kent weather history for previous 24 hours

 ConditionsComfort  
Time TempWeatherWind HumidityBarometerVisibility
7:00 AM
Oct 25
55 °FCool.12 mph89%29.87 "HgN/A
6:00 AM56 °FCool.8 mph88%29.86 "HgN/A
5:00 AM56 °FCool.8 mph83%29.88 "HgN/A
4:00 AM56 °FCool.7 mph84%29.89 "HgN/A
3:00 AM57 °FCool.7 mph84%29.91 "HgN/A
2:00 AM57 °FCool.10 mph82%29.93 "HgN/A
1:00 AM56 °FCool.8 mph82%29.94 "HgN/A
12:00 AM56 °FCool.6 mph80%29.95 "HgN/A
11:00 PM
Oct 24
55 °FCool.5 mph79%29.96 "HgN/A
10:00 PM55 °FCool.3 mph79%29.97 "HgN/A
9:00 PM56 °FCool.7 mph77%29.97 "HgN/A
8:00 PM56 °FCool.3 mph74%29.98 "HgN/A
7:00 PM56 °FCool.6 mph74%29.98 "HgN/A
6:00 PM56 °FCool.7 mph72%29.98 "HgN/A
5:00 PM56 °FCool.10 mph70%29.98 "HgN/A
4:00 PM56 °FCool.8 mph72%29.99 "HgN/A
3:00 PM55 °FCool.12 mph71%30.00 "HgN/A
2:00 PM54 °FCool.10 mph76%30.02 "HgN/A
1:00 PM57 °FCool.5 mph63%30.05 "HgN/A
12:00 PM55 °FCool.5 mph64%30.06 "HgN/A
11:00 AM53 °FCool.3 mph67%30.08 "HgN/A
10:00 AM49 °FCool.2 mph77%30.08 "HgN/A
9:00 AM46 °FCool.2 mph78%30.08 "HgN/A
8:00 AM44 °FQuite cool.2 mph84%30.08 "HgN/A
Weather by CustomWeather, © 2014

See weather overviewHow to use our weather pages